星链-35126 (STARLINK-35126)

导读

STARLINK-35126是美国SpaceX星链星座的一员,于2025年9月5日发射升空,加入星链低轨互联网卫星星座组网。星链项目旨在为全球提供高速低延迟宽带互联网覆盖,该卫星延续星链标准化设计,承担全球偏远地区网络接入、移动网络服务补盲等任务,是美国大规模低轨卫星互联网布局的组成部分。

Basic Information
目录编号:
65503
目录名称:
STARLINK-35126
国际标识:
2025-198M
轨道中心:
EARTH
卫星名称:
星链-35126
卫星全名:
星链-35126 (STARLINK-35126)
卫星状态:
在轨 (已飞行364 天)
发射日期:
2025-09-05 UTC
国别 :
美国 (US)
星等 :
--
Orbit Information
数据来源 国际轨道数据 AOE轨道数据
星历时间 2026-09-02T09:44:44+0800
2天前
查看轨道信息
2026-09-04T00:00:00+0800
10小时前
查看轨道信息
半长轴 6840.876km 6840.836km
偏心率 0.0001417 0.0001429
轨道倾角 53.158° 53.156°
近地点辐角 81.943° 67.050°
升交点赤经 169.696° 162.244°
平近点角 278.173° 102.615°
近地点 461.769km 461.721km
远地点 463.709km 463.677km
周期 93.848分钟 93.848分钟
每日圈数 15.34388 15.344015
Detailed Information
固有亮度:
5
最大亮度:
2.5
卫星平台:
Starlink V1.0
覆盖范围:
全球
运营商:
太空探索技术公司
运营商所在国:
美国
制造商(研发单位):
太空探索技术公司
制造商所在国:
美国
使用方式:
暂无
Satellite Introduction
Starlink 计划是 SpaceX 推出的全球卫星互联网项目,通过发射低轨道卫星,为全球尤其是偏远地区提供高速、低延迟的互联网服务。自 2019 年起,Starlink 已部署数千颗卫星,旨在缩小全球数字鸿沟,推动互联网普及。该项目还为军事、航空等行业提供通信支持,带来广泛经济效益。
2D Orbit Map
3D Orbit Map
Orbit Altitude Analysis Chart
Orbit Inclination Analysis Chart
Orbit Comprehensive Analysis Chart
View Comprehensive Chart
Conjunction Data List
Event ID Objects TCA Miss Dist (km) Collision Risk Probability Collision Risk Index (CRI) Action
CDM_260904-103805-200006-550321
2026-09-04T
10:38:16+0000
2.741 km
极远距离
1.277936E-6 低风险 0.37
CDM_260905-135805-186806-550321
2026-09-05T
13:58:03+0000
2.778 km
极远距离
1.219926E-6 低风险 0.37
CDM_260904-014205-328806-550321
2026-09-04T
01:42:55+0000
2.797 km
极远距离
9.556989E-7 极低风险 0.35